[Date Prev][Date Next][Thread Prev][Thread Next] - [Date Index][Thread Index][Author Index]
2 Line ISS Keps 2-20
- Subject: [sarex] 2 Line ISS Keps 2-20
- From: "Dave Larsen Ph.D." <doc@xxxxxxxxxxx>
- Date: Thu, 20 Feb 2003 02:21:15 -0800
ISS
1 25544U 98067A 03051.20057870 .00020545 00000-0 26817-3 0 7090
2 25544 51.6326 247.7988 0011968 225.3650 295.1548 15.58576690242754
----
Via the sarex mailing list at AMSAT.ORG courtesy of AMSAT-NA.
To unsubscribe, send "unsubscribe sarex" to Majordomo@amsat.org
AMSAT Home